Change the Weather History Date:

Friday, September 6, 2013

  Actual Average Record
Temperature  
Mean Temperature 56 °F -  
Max Temperature 69 °F 76 °F 91 °F (1943)
Min Temperature 44 °F 55 °F 40 °F (1988)
Degree Days  
Heating Degree Days 8    
Growing Degree Days 6 (Base 50)    
Moisture  
Dew Point 41 °F    
Average Humidity 64    
Maximum Humidity 93    
Minimum Humidity 21    
Precipitation  
Precipitation 0.00 in - - ()
Sea Level Pressure  
Sea Level Pressure 30.23 in    
Wind  
Wind Speed 3 mph (North)    
Max Wind Speed 9 mph    
Max Gust Speed -    
Visibility 10 miles    
Events      
Averages and records for this station are not official NWS values.
T = Trace of Precipitation, MM = Missing Value Source: NWS Daily Summary

Daily Weather History Graph

Daily Weather History Graph

Search for Another Location

Airport or City:

Trip Planner

Search our weather history database for the weather conditions in past years. The results will help you decide how hot, cold, wet, or windy it might be!

Date:

Astronomy

Sep. 06, 2013 Rise Set
Actual Time 6:43 AM EDT 7:35 PM EDT
Civil Twilight 6:15 AM EDT 8:02 PM EDT
Nautical Twilight 5:42 AM EDT 8:35 PM EDT
Astronomical Twilight 5:07 AM EDT 9:10 PM EDT
Moon 7:54 AM EDT (9/6) 7:57 PM EDT (9/6)
Length of Visible Light 13h 47m
Length of Day
12h 51m
New Moon, 1% of the Moon is Illuminated
Sep 6
New Moon
Sep 12
First Quarter
Sep 19
Full
Sep 26
Last Quarter
Oct 4
New

Hourly Weather History & Observations

Time (EDT) Temp. Dew Point Humidity Pressure Visibility Wind Dir Wind Speed Gust Speed Precip Events Conditions
12:15 AM 56.1 °F 43.2 °F 62% 30.22 in 10.0 mi NNE 9.2 mph - N/A   Clear
12:35 AM 55.6 °F 43.5 °F 64% 30.23 in 10.0 mi NNE 9.2 mph - N/A   Clear
12:55 AM 53.4 °F 43.5 °F 69% 30.24 in 10.0 mi NE 4.6 mph - N/A   Clear
1:15 AM 52.5 °F 43.2 °F 70% 30.24 in 10.0 mi East 4.6 mph - N/A   Clear
1:35 AM 53.6 °F 43.0 °F 67% 30.24 in 10.0 mi NNE 4.6 mph - N/A   Clear
1:55 AM 50.9 °F 43.3 °F 75% 30.25 in 10.0 mi Calm Calm - N/A   Clear
2:15 AM 51.3 °F 43.0 °F 73% 30.25 in 10.0 mi NE 3.5 mph - N/A   Clear
2:35 AM 50.5 °F 43.2 °F 76% 30.25 in 10.0 mi Calm Calm - N/A   Clear
2:55 AM 50.7 °F 42.8 °F 74% 30.25 in 10.0 mi North 3.5 mph - N/A   Clear
3:15 AM 50.0 °F 42.8 °F 76% 30.25 in 10.0 mi NNW 3.5 mph - N/A   Clear
3:35 AM 47.3 °F 43.2 °F 86% 30.26 in 10.0 mi ESE 3.5 mph - N/A   Scattered Clouds
3:55 AM 49.1 °F 43.2 °F 80% 30.26 in 10.0 mi Calm Calm - N/A   Clear
4:15 AM 49.6 °F 42.4 °F 76% 30.26 in 10.0 mi North 3.5 mph - N/A   Clear
4:35 AM 48.4 °F 42.8 °F 81% 30.26 in 10.0 mi Calm Calm - N/A   Clear
4:55 AM 47.3 °F 42.3 °F 83% 30.27 in 10.0 mi Calm Calm - N/A   Scattered Clouds
5:15 AM 47.1 °F 42.3 °F 83% 30.27 in 10.0 mi Calm Calm - N/A   Scattered Clouds
5:35 AM 46.2 °F 41.9 °F 85% 30.27 in 10.0 mi Calm Calm - N/A   Clear
5:53 AM 46.4 °F 41.0 °F 81% 30.27 in 10.0 mi Calm Calm - N/A   Clear
6:53 AM 44.6 °F 42.8 °F 93% 30.28 in 10.0 mi Calm Calm - N/A   Clear
7:53 AM 46.4 °F 44.6 °F 93% 30.30 in 10.0 mi Calm Calm - N/A   Clear
8:53 AM 51.8 °F 44.6 °F 76% 30.31 in 10.0 mi Calm Calm - N/A   Clear
9:53 AM 57.2 °F 42.8 °F 59% 30.32 in 10.0 mi Calm Calm - N/A   Clear
10:53 AM 59.0 °F 39.2 °F 48% 30.31 in 10.0 mi Calm Calm - N/A   Clear
11:53 AM 60.8 °F 35.6 °F 39% 30.29 in 10.0 mi Calm Calm - N/A   Clear
12:53 PM 64.4 °F 35.6 °F 34% 30.27 in 10.0 mi Calm Calm - N/A   Clear
1:53 PM 68.0 °F 32.0 °F 26% 30.26 in 10.0 mi Calm Calm - N/A   Clear
3:53 PM 69.8 °F 30.2 °F 23% 30.21 in 10.0 mi Variable 5.8 mph - N/A   Clear
4:53 PM 69.8 °F 28.4 °F 21% 30.19 in 10.0 mi Variable 4.6 mph - N/A   Clear
5:53 PM 69.8 °F 32.0 °F 25% 30.18 in 10.0 mi Calm Calm - N/A   Clear
6:53 PM 66.2 °F 35.6 °F 32% 30.17 in 10.0 mi Calm Calm - N/A   Clear
7:53 PM 64.4 °F 39.2 °F 40% 30.17 in 10.0 mi Calm Calm - N/A   Clear
8:53 PM 59.0 °F 42.8 °F 55% 30.17 in 10.0 mi WNW 4.6 mph - N/A   Clear
9:15 PM 57.9 °F 42.1 °F 56% 30.17 in 10.0 mi Calm Calm - N/A   Scattered Clouds
9:35 PM 59.2 °F 40.8 °F 51% 30.17 in 10.0 mi West 3.5 mph - N/A   Scattered Clouds
9:55 PM 56.3 °F 43.5 °F 62% 30.17 in 10.0 mi Calm Calm - N/A   Clear
10:15 PM 55.0 °F 42.8 °F 63% 30.17 in 10.0 mi Calm Calm - N/A   Clear
10:35 PM 52.7 °F 43.5 °F 71% 30.17 in 10.0 mi Calm Calm - N/A   Clear
10:55 PM 52.7 °F 43.0 °F 70% 30.17 in 10.0 mi Calm Calm - N/A   Clear
11:15 PM 52.3 °F 42.1 °F 68% 30.16 in 10.0 mi SSW 3.5 mph - N/A   Clear
11:35 PM 54.9 °F 41.4 °F 60% 30.16 in 10.0 mi WSW 3.5 mph - N/A   Clear
11:55 PM 49.5 °F 42.8 °F 78% 30.16 in 10.0 mi SSW 3.5 mph - N/A   Clear